TimeCDT,TemperatureF,Dew PointF,Humidity,Sea Level PressureIn,VisibilityMPH,Wind Direction,Wind SpeedMPH,Gust SpeedMPH,PrecipitationIn,Events,Conditions,WindDirDegrees,DateUTC
12:14 AM,53.6,21.2,28,29.91,10.0,SSW,11.5,20.7,N/A,,Overcast,200,2012-10-13 05:14:00
12:54 AM,53.6,26.6,35,29.89,10.0,SW,15.0,21.9,N/A,,Overcast,230,2012-10-13 05:54:00
1:14 AM,53.6,42.8,67,29.89,10.0,WSW,24.2,28.8,N/A,,Overcast,240,2012-10-13 06:14:00
1:34 AM,51.8,42.8,71,29.89,10.0,WSW,17.3,24.2,N/A,,Overcast,250,2012-10-13 06:34:00
1:54 AM,51.8,41.0,67,29.88,10.0,SW,13.8,18.4,N/A,,Overcast,230,2012-10-13 06:54:00
2:14 AM,51.8,42.8,71,29.87,10.0,WSW,13.8,-,N/A,,Overcast,240,2012-10-13 07:14:00
2:34 AM,51.8,41.0,67,29.86,10.0,SW,15.0,19.6,N/A,,Overcast,230,2012-10-13 07:34:00
2:55 AM,51.8,41.0,67,29.84,10.0,SW,8.1,-,N/A,,Mostly Cloudy,220,2012-10-13 07:55:00
3:14 AM,51.8,41.0,67,29.81,10.0,SSW,8.1,-,N/A,,Scattered Clouds,210,2012-10-13 08:14:00
3:34 AM,50.0,41.0,71,29.80,10.0,SSW,5.8,-,N/A,,Scattered Clouds,200,2012-10-13 08:34:00
3:54 AM,50.0,41.0,71,29.81,10.0,SSW,6.9,-,N/A,,Clear,200,2012-10-13 08:54:00
4:15 AM,48.2,41.0,76,29.81,10.0,SSW,9.2,-,N/A,,Clear,200,2012-10-13 09:15:00
4:34 AM,48.2,42.8,82,29.80,10.0,SSW,8.1,-,N/A,,Clear,200,2012-10-13 09:34:00
4:55 AM,48.2,42.8,82,29.80,10.0,SSW,6.9,-,N/A,,Clear,200,2012-10-13 09:55:00
5:14 AM,48.2,42.8,82,29.79,10.0,SSW,6.9,-,N/A,,Clear,200,2012-10-13 10:14:00
5:34 AM,48.2,42.8,82,29.79,10.0,SSW,5.8,-,N/A,,Clear,200,2012-10-13 10:34:00
5:55 AM,48.2,42.8,82,29.78,10.0,South,4.6,-,N/A,,Clear,190,2012-10-13 10:55:00
6:14 AM,46.4,42.8,87,29.77,10.0,South,3.5,-,N/A,,Clear,180,2012-10-13 11:14:00
6:34 AM,46.4,42.8,87,29.77,7.0,South,5.8,-,N/A,,Clear,190,2012-10-13 11:34:00
6:55 AM,46.4,42.8,87,29.77,7.0,South,6.9,-,N/A,,Clear,180,2012-10-13 11:55:00
7:14 AM,46.4,42.8,87,29.76,10.0,South,5.8,-,N/A,,Clear,190,2012-10-13 12:14:00
7:34 AM,46.4,42.8,87,29.75,10.0,South,6.9,-,N/A,,Clear,190,2012-10-13 12:34:00
7:55 AM,46.4,42.8,87,29.74,10.0,South,6.9,-,N/A,,Scattered Clouds,190,2012-10-13 12:55:00
8:14 AM,48.2,44.6,87,29.72,7.0,SSW,6.9,-,N/A,,Mostly Cloudy,200,2012-10-13 13:14:00
8:55 AM,50.0,44.6,82,29.73,7.0,South,5.8,-,N/A,,Mostly Cloudy,190,2012-10-13 13:55:00
9:34 AM,51.8,48.2,88,29.72,5.0,SW,6.9,-,N/A,,Overcast,220,2012-10-13 14:34:00
9:55 AM,53.6,48.2,82,29.72,5.0,WSW,4.6,-,N/A,,Haze,240,2012-10-13 14:55:00
10:14 AM,53.6,48.2,82,29.72,5.0,WSW,6.9,-,N/A,,Overcast,240,2012-10-13 15:14:00
10:34 AM,53.6,48.2,82,29.72,5.0,SW,5.8,-,N/A,,Haze,220,2012-10-13 15:34:00
10:55 AM,53.6,48.2,82,29.72,5.0,SSW,5.8,-,N/A,,Haze,210,2012-10-13 15:55:00
11:14 AM,53.6,48.2,82,29.71,5.0,SSW,4.6,-,N/A,,Haze,210,2012-10-13 16:14:00
11:34 AM,55.4,48.2,77,29.71,5.0,SW,5.8,-,N/A,,Haze,230,2012-10-13 16:34:00
11:55 AM,55.4,48.2,77,29.70,5.0,South,5.8,-,N/A,,Haze,180,2012-10-13 16:55:00
12:34 PM,57.2,48.2,72,29.70,7.0,South,5.8,-,N/A,,Overcast,180,2012-10-13 17:34:00
12:55 PM,57.2,48.2,72,29.70,7.0,South,3.5,-,N/A,,Overcast,180,2012-10-13 17:55:00
1:14 PM,57.2,48.2,72,29.70,7.0,SW,5.8,-,N/A,,Overcast,220,2012-10-13 18:14:00
1:34 PM,57.2,48.2,72,29.69,7.0,SW,3.5,-,N/A,,Overcast,220,2012-10-13 18:34:00
1:55 PM,57.2,48.2,72,29.69,7.0,SSW,3.5,-,N/A,,Overcast,200,2012-10-13 18:55:00
2:14 PM,59.0,50.0,72,29.68,7.0,South,4.6,-,N/A,,Mostly Cloudy,180,2012-10-13 19:14:00
2:34 PM,59.0,48.2,67,29.68,7.0,SW,3.5,-,N/A,,Mostly Cloudy,220,2012-10-13 19:34:00
2:54 PM,60.8,48.2,63,29.67,7.0,WNW,3.5,-,N/A,,Overcast,290,2012-10-13 19:54:00
3:14 PM,60.8,48.2,63,29.67,7.0,Calm,Calm,-,N/A,,Scattered Clouds,0,2012-10-13 20:14:00
3:34 PM,60.8,48.2,63,29.67,7.0,Calm,Calm,-,N/A,,Clear,0,2012-10-13 20:34:00
3:54 PM,60.8,48.2,63,29.68,7.0,Calm,Calm,-,N/A,,Clear,0,2012-10-13 20:54:00
4:14 PM,60.8,48.2,63,29.67,7.0,Calm,Calm,-,N/A,,Clear,0,2012-10-13 21:14:00
4:34 PM,60.8,48.2,63,29.67,7.0,Calm,Calm,-,N/A,,Clear,0,2012-10-13 21:34:00
4:54 PM,60.8,48.2,63,29.66,7.0,East,3.5,-,N/A,,Clear,90,2012-10-13 21:54:00
5:14 PM,60.8,48.2,63,29.68,7.0,Calm,Calm,-,N/A,,Clear,0,2012-10-13 22:14:00
5:34 PM,60.8,48.2,63,29.68,7.0,Calm,Calm,-,N/A,,Clear,0,2012-10-13 22:34:00
5:54 PM,59.0,48.2,67,29.68,10.0,Calm,Calm,-,N/A,,Clear,0,2012-10-13 22:54:00
6:14 PM,59.0,48.2,67,29.69,7.0,Calm,Calm,-,N/A,,Clear,0,2012-10-13 23:14:00
6:34 PM,57.2,46.4,67,29.70,7.0,Calm,Calm,-,N/A,,Clear,0,2012-10-13 23:34:00
7:14 PM,53.6,46.4,77,29.72,7.0,Calm,Calm,-,N/A,,Clear,0,2012-10-14 00:14:00
7:34 PM,51.8,46.4,82,29.72,7.0,ENE,5.8,-,N/A,,Clear,60,2012-10-14 00:34:00
7:54 PM,50.0,46.4,87,29.72,7.0,East,4.6,-,N/A,,Clear,80,2012-10-14 00:54:00
8:14 PM,48.2,44.6,87,29.74,7.0,East,3.5,-,N/A,,Clear,100,2012-10-14 01:14:00
9:14 PM,48.2,44.6,87,29.76,7.0,SE,4.6,-,N/A,,Clear,130,2012-10-14 02:14:00
9:34 PM,48.2,44.6,87,29.76,7.0,SE,3.5,-,N/A,,Clear,130,2012-10-14 02:34:00
9:54 PM,48.2,44.6,87,29.76,7.0,South,4.6,-,N/A,,Clear,170,2012-10-14 02:54:00
10:14 PM,48.2,44.6,87,29.76,7.0,Calm,Calm,-,N/A,,Clear,0,2012-10-14 03:14:00
10:54 PM,46.4,44.6,93,29.76,5.0,Calm,Calm,-,N/A,,Clear,0,2012-10-14 03:54:00
11:34 PM,44.6,44.6,100,29.78,4.0,WNW,3.5,-,N/A,,Clear,300,2012-10-14 04:34:00